Weather in Bolshaya Tsilna

Russia / Republic of Tatarstan     54°41′19″N   47°51′24″E
temp.,
°C
wind,
m/s
gust,
m/s
humid.,
%
clouds,
%
prec.,
mm/h
press.,
hPa
HPBL,
m
11 may, tue
tue1100:00+14nne6119068 0.0 1021274
03:00+14ne4990100 0.0 1022234
06:00+15ne357798 0.0 1022148
09:00+20e345082 0.0 1024525
12:00+22e4443100 0.0 1025992
15:00+23ese464291 0.0 10251458
18:00+20ene475947 0.0 1025155
21:00+17e22605 0.0 102617
12 may, wed
wed1200:00+15wnw227313 0.0 102613
03:00+15ene227019 0.0 102611
06:00+16ese387384 0.0 1027225
09:00+20ese585134 0.0 1027653
12:00+21se71145100 0.0 10271720
15:00+18se5105769 0.0 1027519
18:00+17se3762100 0.0 1026211
21:00+16ese376696 0.0 1026166
13 may, thu
thu1300:00+15ese3770100 0.0 1026163
03:00+13ese377193 0.0 1026129
06:00+15ese4106819 0.0 1026316
09:00+19ese71053100 0.0 1025591
12:00+21sse7944100 0.0 10251212
15:00+19ese6125695 0.0 1024607
18:00+20ese5135799 0.1 1022445
21:00+16se4970100 0.2 1022154
14 may, fri
fri1400:00+15sse3470100 0.3 102270
03:00+13ese487359 0.6 1022116
06:00+15sse38697 0.0 1022206
09:00+21s465544 0.0 1022470
12:00+25s574494 0.0 10211169
15:00+27s6836100 0.0 10211519
18:00+24s385330 0.0 1020238
21:00+19sse41262100 0.0 1020237
15 may, sat
sat1500:00+17s412615 0.0 1020211
03:00+15sse49615 0.0 1021150
06:00+17sse410615 0.0 1020233
09:00+23s69425 0.0 1019452
12:00+27s710305 0.0 10191192
15:00+27s710315 0.0 10181490
18:00+24sse511455 0.0 1017312
21:00+19s513525 0.0 1017206